NATO215 ETNG-ETNG

Flight info

Callsign NATO215
Flight time 0h 6m
Altitude 33000
Route GIX DCT MOSUG DCT IBAGU DCT MC5 DCT EGUGE DCT LWD STAY1/0020 DCT LWD DCT EGUGE DCT MC5 DCT IBAGU DCT OSB DCT RISOK DCT BARAP DCT HOZ DCT LASIS DCT REPTU STAY2/0045 DCT AKAPI P733 ADVAB P150 TENVO DCT EPPW STAY3/0015 DCT ADVAB L980 KELOD L979 GOVEN DCT HOZ DCT BARAP DCT RISOK DCT BIGGE DCT NVO DCT GIX
Aircraft E3TF/H-SDE1E2E3FGHIRTUWXYZ/LB1D1

Departure

Time 2026-05-03 20:46
Airport Geilenkirchen Air Base (ETNG)

Arrival

Time 2026-05-03 20:52
Airport Geilenkirchen Air Base (ETNG)
Time Latitude Longitude Altitude Speed Heading
2026-05-03 20:15 51.80823 12.58725 31913 ft 480 kts 274°
2026-05-03 20:15 51.81517 12.48012 31919 ft 480 kts 274°
2026-05-03 20:16 51.82201 12.37274 31924 ft 479 kts 274°
2026-05-03 20:16 51.82873 12.26595 31921 ft 479 kts 273°
2026-05-03 20:17 51.83539 12.15840 31929 ft 479 kts 273°
2026-05-03 20:17 51.84193 12.05114 31930 ft 478 kts 273°
2026-05-03 20:18 51.84834 11.94451 31934 ft 478 kts 273°
2026-05-03 20:18 51.85469 11.83711 31939 ft 478 kts 273°
2026-05-03 20:19 51.86089 11.73071 31942 ft 477 kts 272°
2026-05-03 20:19 51.86703 11.62339 31950 ft 478 kts 272°
2026-05-03 20:20 51.87304 11.51665 31948 ft 478 kts 272°
2026-05-03 20:20 51.87899 11.40907 31948 ft 478 kts 272°
2026-05-03 20:21 51.88479 11.30254 31950 ft 476 kts 272°
2026-05-03 20:21 51.88746 11.19543 31953 ft 473 kts 262°
2026-05-03 20:22 51.87247 11.09320 31940 ft 469 kts 251°
2026-05-03 20:22 51.85305 10.99224 31942 ft 469 kts 250°
2026-05-03 20:23 51.83363 10.89188 31936 ft 469 kts 250°
2026-05-03 20:23 51.81405 10.79115 31927 ft 469 kts 250°
2026-05-03 20:24 51.79448 10.69107 31930 ft 468 kts 250°
2026-05-03 20:24 51.77469 10.59034 31928 ft 469 kts 250°
2026-05-03 20:25 51.75498 10.49055 31932 ft 469 kts 250°
2026-05-03 20:25 51.73502 10.39006 31953 ft 469 kts 250°
2026-05-03 20:26 51.71507 10.29007 31953 ft 469 kts 250°
2026-05-03 20:26 51.69839 10.20677 31953 ft 468 kts 250°
2026-05-03 20:27 51.67835 10.10741 31960 ft 467 kts 249°
2026-05-03 20:27 51.65813 10.00752 31961 ft 467 kts 249°
2026-05-03 20:28 51.63804 9.90884 31962 ft 466 kts 249°
2026-05-03 20:28 51.61771 9.80940 31961 ft 466 kts 249°
2026-05-03 20:29 51.59744 9.71077 31959 ft 465 kts 249°
2026-05-03 20:29 51.57711 9.61240 31967 ft 465 kts 249°
2026-05-03 20:30 51.55658 9.51349 31968 ft 464 kts 249°
2026-05-03 20:30 51.53613 9.41547 31973 ft 465 kts 248°
2026-05-03 20:31 51.51546 9.31686 31976 ft 465 kts 248°
2026-05-03 20:31 51.49475 9.21855 31977 ft 464 kts 248°
2026-05-03 20:32 51.47405 9.12076 31969 ft 464 kts 248°
2026-05-03 20:32 51.45318 9.02263 31963 ft 463 kts 248°
2026-05-03 20:33 51.43239 8.92529 31964 ft 463 kts 248°
2026-05-03 20:33 51.41132 8.82726 31966 ft 462 kts 248°
2026-05-03 20:34 51.39046 8.73059 31966 ft 463 kts 248°
2026-05-03 20:34 51.36928 8.63291 31970 ft 463 kts 248°
2026-05-03 20:35 51.34819 8.53603 31974 ft 462 kts 247°
2026-05-03 20:35 51.32685 8.43874 31970 ft 462 kts 246°
2026-05-03 20:36 51.30183 8.34483 31973 ft 461 kts 243°
2026-05-03 20:36 51.27629 8.25050 31973 ft 461 kts 243°
2026-05-03 20:37 51.25084 8.15700 31978 ft 460 kts 243°
2026-05-03 20:37 51.22514 8.06286 31979 ft 461 kts 243°
2026-05-03 20:38 51.19952 7.96946 31984 ft 461 kts 243°
2026-05-03 20:38 51.17386 7.87627 31984 ft 462 kts 243°
2026-05-03 20:39 51.14798 7.78264 31603 ft 464 kts 243°
2026-05-03 20:39 51.13488 7.73540 30843 ft 462 kts 243°
2026-05-03 20:39 51.12203 7.68913 30117 ft 457 kts 243°
2026-05-03 20:39 51.10914 7.64280 29291 ft 452 kts 243°
2026-05-03 20:40 51.09718 7.59994 28496 ft 447 kts 243°
2026-05-03 20:40 51.08473 7.55540 27702 ft 442 kts 243°
2026-05-03 20:40 51.07229 7.51095 26921 ft 436 kts 243°
2026-05-03 20:40 51.06002 7.46718 26162 ft 430 kts 243°
2026-05-03 20:41 51.04787 7.42394 25423 ft 424 kts 243°
2026-05-03 20:41 51.03596 7.38160 24711 ft 417 kts 243°
2026-05-03 20:41 51.02415 7.33975 24001 ft 411 kts 243°
2026-05-03 20:41 51.01266 7.29909 23284 ft 405 kts 243°
2026-05-03 20:42 51.00118 7.25856 22455 ft 399 kts 244°
2026-05-03 20:42 50.98979 7.21839 21655 ft 393 kts 244°
2026-05-03 20:42 50.97859 7.17899 20898 ft 406 kts 244°
2026-05-03 20:42 50.96696 7.13813 20169 ft 402 kts 244°
2026-05-03 20:43 50.95553 7.09794 19436 ft 394 kts 244°
2026-05-03 20:43 50.94428 7.05848 18705 ft 386 kts 244°
2026-05-03 20:43 50.93340 7.02045 17982 ft 389 kts 244°
2026-05-03 20:43 50.92211 6.98104 17189 ft 387 kts 245°
2026-05-03 20:44 50.91109 6.94256 16409 ft 378 kts 245°
2026-05-03 20:44 50.90026 6.90486 15638 ft 371 kts 245°
2026-05-03 20:44 50.88975 6.86833 14890 ft 363 kts 244°
2026-05-03 20:44 50.87928 6.83201 14154 ft 357 kts 244°
2026-05-03 20:45 50.86917 6.79700 13395 ft 351 kts 244°
2026-05-03 20:45 50.85912 6.76222 12617 ft 345 kts 244°
2026-05-03 20:45 50.84916 6.72778 11838 ft 340 kts 244°
2026-05-03 20:45 50.83962 6.69380 11199 ft 332 kts 249°
2026-05-03 20:46 50.83517 6.65924 10975 ft 323 kts 266°
2026-05-03 20:46 50.83748 6.62348 10977 ft 329 kts 283°
2026-05-03 20:46 50.84684 6.59000 10983 ft 335 kts 301°
2026-05-03 20:46 50.86097 6.56039 10920 ft 339 kts 305°
2026-05-03 20:47 50.87579 6.53121 10384 ft 340 kts 306°
2026-05-03 20:47 50.89053 6.50249 9538 ft 340 kts 306°
2026-05-03 20:47 50.90534 6.47318 8616 ft 338 kts 306°
2026-05-03 20:47 50.91989 6.44408 7766 ft 336 kts 306°
2026-05-03 20:48 50.93442 6.41513 6910 ft 334 kts 306°
2026-05-03 20:48 50.94821 6.38624 6065 ft 328 kts 298°
2026-05-03 20:48 50.95609 6.35412 5148 ft 298 kts 279°
2026-05-03 20:48 50.95768 6.32271 4236 ft 276 kts 269°
2026-05-03 20:49 50.95804 6.29333 3599 ft 253 kts 269°
2026-05-03 20:49 50.95833 6.26713 3440 ft 223 kts 269°
2026-05-03 20:49 50.95859 6.24341 3459 ft 204 kts 268°
2026-05-03 20:49 50.95869 6.22103 3152 ft 200 kts 268°
2026-05-03 20:50 50.95893 6.20026 2648 ft 175 kts 268°
2026-05-03 20:50 50.95920 6.18228 2145 ft 153 kts 266°
2026-05-03 20:50 50.95939 6.16627 1760 ft 140 kts 266°
2026-05-03 20:50 50.95956 6.15112 1432 ft 142 kts 265°
2026-05-03 20:51 50.95968 6.13528 1175 ft 146 kts 267°
2026-05-03 20:51 50.95991 6.11914 992 ft 149 kts 269°
2026-05-03 20:51 50.96012 6.10267 805 ft 149 kts 269°
2026-05-03 20:51 50.96036 6.08665 592 ft 146 kts 272°
2026-05-03 20:52 50.96054 6.07076 415 ft 136 kts 270°
2026-05-03 20:52 50.96066 6.05582 306 ft 129 kts 270°
2026-05-03 20:52 50.96079 6.04371 304 ft 87 kts 271°
2026-05-03 20:52 50.96087 6.03698 305 ft 45 kts 272°
2026-05-03 20:53 50.96093 6.03393 305 ft 12 kts 269°
2026-05-03 20:53 50.96058 6.03309 303 ft 9 kts 206°
2026-05-03 20:53 50.95997 6.03300 304 ft 10 kts 181°
2026-05-03 20:53 50.95927 6.03301 304 ft 10 kts 171°
2026-05-03 20:54 50.95891 6.03360 303 ft 8 kts 105°
2026-05-03 20:54 50.95885 6.03683 301 ft 17 kts 92°
2026-05-03 20:54 50.95883 6.03851 304 ft 9 kts 90°
2026-05-03 20:55 50.95868 6.03910 305 ft 5 kts 143°
2026-05-03 20:55 50.95827 6.03920 304 ft 7 kts 182°
2026-05-03 20:55 50.95819 6.03919 304 ft 0 kts 182°